Wetterdaten: aktuell Dienstag, 19.02.2019 03:44
Datum Zeit Temp. 2m Temp. 5cm Feuchte A. Luftdruck Regen Wind Richtung Richtung ET UV Solar Taupunkt Windchill Windben Empfang
19.02.2019 03:44 3,7 C -1,1 C 62 % 1020,8 hPa 0,0 l/m 4,8 km/h (1 Bft) W-NW 292 0,000 mm 0,0 UV-I 0 W/m -2,9 C 3,7 C 8,0 km/h (2 Bft) 100,00 %
19.02.2019 03:43 3,7 C -0,6 C 62 % 1020,8 hPa 0,0 l/m 4,8 km/h (1 Bft) W-NW 292 0,000 mm 0,0 UV-I 0 W/m -2,9 C 3,7 C 8,0 km/h (2 Bft) 91,30 %
19.02.2019 03:42 3,6 C -1,1 C 63 % 1020,8 hPa 0,0 l/m 6,4 km/h (2 Bft) W-NW 292 0,000 mm 0,0 UV-I 0 W/m -2,8 C 3,6 C 11,3 km/h (2 Bft) 91,30 %
19.02.2019 03:41 3,6 C -1,1 C 63 % 1020,9 hPa 0,0 l/m 8,0 km/h (2 Bft) W-NW 292 0,000 mm 0,0 UV-I 0 W/m -2,8 C 2,1 C 12,9 km/h (3 Bft) 95,65 %
19.02.2019 03:40 3,5 C -1,1 C 63 % 1020,8 hPa 0,0 l/m 8,0 km/h (2 Bft) W-NW 292 0,000 mm 0,0 UV-I 0 W/m -2,9 C 2,0 C 11,3 km/h (2 Bft) 95,65 %
19.02.2019 03:39 3,6 C -1,1 C 63 % 1020,8 hPa 0,0 l/m 3,2 km/h (1 Bft) W-NW 292 0,000 mm 0,0 UV-I 0 W/m -2,8 C 3,6 C 14,5 km/h (3 Bft) 100,00 %
19.02.2019 03:38 3,5 C -1,1 C 63 % 1020,8 hPa 0,0 l/m 8,0 km/h (2 Bft) W-NW 292 0,000 mm 0,0 UV-I 0 W/m -2,9 C 2,0 C 12,9 km/h (3 Bft) 95,65 %
19.02.2019 03:37 3,5 C -1,1 C 63 % 1020,8 hPa 0,0 l/m 8,0 km/h (2 Bft) W 270 0,000 mm 0,0 UV-I 0 W/m -2,9 C 2,0 C 14,5 km/h (3 Bft) 100,00 %
19.02.2019 03:36 3,4 C -1,1 C 63 % 1020,8 hPa 0,0 l/m 8,0 km/h (2 Bft) W 270 0,000 mm 0,0 UV-I 0 W/m -3,0 C 1,9 C 12,9 km/h (3 Bft) 91,30 %
19.02.2019 03:35 3,3 C -1,1 C 63 % 1020,7 hPa 0,0 l/m 9,7 km/h (2 Bft) W 270 0,000 mm 0,0 UV-I 0 W/m -3,1 C 0,4 C 12,9 km/h (3 Bft) 100,00 %
19.02.2019 03:34 3,3 C -1,1 C 64 % 1020,8 hPa 0,0 l/m 8,0 km/h (2 Bft) W 270 0,000 mm 0,0 UV-I 0 W/m -2,8 C 1,8 C 12,9 km/h (3 Bft) 91,30 %
19.02.2019 03:33 3,3 C -1,1 C 64 % 1020,7 hPa 0,0 l/m 8,0 km/h (2 Bft) W 270 0,000 mm 0,0 UV-I 0 W/m -2,8 C 1,8 C 12,9 km/h (3 Bft) 100,00 %
19.02.2019 03:32 3,3 C -1,1 C 64 % 1020,7 hPa 0,0 l/m 8,0 km/h (2 Bft) W-SW 247 0,000 mm 0,0 UV-I 0 W/m -2,8 C 1,8 C 11,3 km/h (2 Bft) 91,30 %
19.02.2019 03:31 3,3 C -1,1 C 64 % 1020,7 hPa 0,0 l/m 11,3 km/h (2 Bft) W 270 0,000 mm 0,0 UV-I 0 W/m -2,8 C -0,7 C 12,9 km/h (3 Bft) 100,00 %
19.02.2019 03:30 3,3 C -1,1 C 64 % 1020,8 hPa 0,0 l/m 8,0 km/h (2 Bft) W 270 0,000 mm 0,0 UV-I 0 W/m -2,8 C 1,8 C 12,9 km/h (3 Bft) 95,65 %
19.02.2019 03:29 3,3 C -1,1 C 65 % 1020,8 hPa 0,0 l/m 9,7 km/h (2 Bft) W 270 0,000 mm 0,0 UV-I 0 W/m -2,6 C 0,4 C 12,9 km/h (3 Bft) 91,30 %
19.02.2019 03:28 3,3 C -1,1 C 65 % 1020,7 hPa 0,0 l/m 9,7 km/h (2 Bft) W 270 0,000 mm 0,0 UV-I 0 W/m -2,6 C 0,4 C 11,3 km/h (2 Bft) 100,00 %
19.02.2019 03:27 3,3 C -1,1 C 65 % 1020,7 hPa 0,0 l/m 8,0 km/h (2 Bft) W 270 0,000 mm 0,0 UV-I 0 W/m -2,6 C 1,8 C 11,3 km/h (2 Bft) 95,65 %
19.02.2019 03:26 3,3 C -1,1 C 65 % 1020,7 hPa 0,0 l/m 11,3 km/h (2 Bft) W 270 0,000 mm 0,0 UV-I 0 W/m -2,6 C -0,7 C 12,9 km/h (3 Bft) 100,00 %
19.02.2019 03:25 3,2 C -1,1 C 66 % 1020,7 hPa 0,0 l/m 8,0 km/h (2 Bft) W 270 0,000 mm 0,0 UV-I 0 W/m -2,5 C 1,7 C 11,3 km/h (2 Bft) 100,00 %
19.02.2019 03:24 3,2 C -1,1 C 65 % 1020,8 hPa 0,0 l/m 6,4 km/h (2 Bft) W 270 0,000 mm 0,0 UV-I 0 W/m -2,7 C 3,2 C 9,7 km/h (2 Bft) 100,00 %
19.02.2019 03:23 3,2 C -1,1 C 66 % 1020,8 hPa 0,0 l/m 6,4 km/h (2 Bft) W 270 0,000 mm 0,0 UV-I 0 W/m -2,5 C 3,2 C 11,3 km/h (2 Bft) 91,30 %
19.02.2019 03:22 3,2 C -1,1 C 65 % 1020,8 hPa 0,0 l/m 4,8 km/h (1 Bft) W 270 0,000 mm 0,0 UV-I 0 W/m -2,7 C 3,2 C 6,4 km/h (2 Bft) 100,00 %
19.02.2019 03:21 3,2 C -1,1 C 65 % 1020,8 hPa 0,0 l/m 9,7 km/h (2 Bft) W 270 0,000 mm 0,0 UV-I 0 W/m -2,7 C 0,3 C 11,3 km/h (2 Bft) 100,00 %
19.02.2019 03:20 3,3 C -1,1 C 65 % 1020,8 hPa 0,0 l/m 9,7 km/h (2 Bft) W 270 0,000 mm 0,0 UV-I 0 W/m -2,6 C 0,4 C 11,3 km/h (2 Bft) 95,65 %
19.02.2019 03:19 3,3 C -1,1 C 65 % 1020,8 hPa 0,0 l/m 8,0 km/h (2 Bft) W 270 0,000 mm 0,0 UV-I 0 W/m -2,6 C 1,8 C 11,3 km/h (2 Bft) 100,00 %
19.02.2019 03:18 3,4 C -1,1 C 65 % 1020,8 hPa 0,0 l/m 6,4 km/h (2 Bft) W 270 0,000 mm 0,0 UV-I 0 W/m -2,5 C 3,4 C 9,7 km/h (2 Bft) 100,00 %
19.02.2019 03:17 3,4 C -1,1 C 65 % 1020,8 hPa 0,0 l/m 8,0 km/h (2 Bft) W 270 0,000 mm 0,0 UV-I 0 W/m -2,5 C 1,9 C 11,3 km/h (2 Bft) 100,00 %
19.02.2019 03:16 3,4 C -1,1 C 65 % 1020,8 hPa 0,0 l/m 6,4 km/h (2 Bft) W 270 0,000 mm 0,0 UV-I 0 W/m -2,5 C 3,4 C 6,4 km/h (2 Bft) 100,00 %
19.02.2019 03:15 3,5 C -1,1 C 65 % 1020,8 hPa 0,0 l/m 6,4 km/h (2 Bft) W 270 0,000 mm 0,0 UV-I 0 W/m -2,4 C 3,5 C 9,7 km/h (2 Bft) 100,00 %
19.02.2019 03:14 3,5 C -1,1 C 65 % 1020,8 hPa 0,0 l/m 4,8 km/h (1 Bft) W 270 0,000 mm 0,0 UV-I 0 W/m -2,4 C 3,5 C 6,4 km/h (2 Bft) 100,00 %
19.02.2019 03:13 3,5 C -1,1 C 65 % 1020,9 hPa 0,0 l/m 4,8 km/h (1 Bft) W 270 0,000 mm 0,0 UV-I 0 W/m -2,4 C 3,5 C 9,7 km/h (2 Bft) 95,65 %
19.02.2019 03:12 3,6 C -1,1 C 65 % 1020,8 hPa 0,0 l/m 4,8 km/h (1 Bft) W 270 0,000 mm 0,0 UV-I 0 W/m -2,4 C 3,6 C 6,4 km/h (2 Bft) 100,00 %
19.02.2019 03:11 3,5 C -1,1 C 65 % 1020,8 hPa 0,0 l/m 3,2 km/h (1 Bft) W 270 0,000 mm 0,0 UV-I 0 W/m -2,4 C 3,5 C 4,8 km/h (1 Bft) 95,65 %
19.02.2019 03:10 3,5 C -0,6 C 65 % 1020,8 hPa 0,0 l/m 3,2 km/h (1 Bft) W 270 0,000 mm 0,0 UV-I 0 W/m -2,4 C 3,5 C 4,8 km/h (1 Bft) 100,00 %
19.02.2019 03:09 3,5 C -0,6 C 65 % 1020,9 hPa 0,0 l/m 3,2 km/h (1 Bft) W 270 0,000 mm 0,0 UV-I 0 W/m -2,4 C 3,5 C 4,8 km/h (1 Bft) 100,00 %
19.02.2019 03:08 3,4 C -0,6 C 65 % 1020,8 hPa 0,0 l/m 4,8 km/h (1 Bft) W 270 0,000 mm 0,0 UV-I 0 W/m -2,5 C 3,4 C 4,8 km/h (1 Bft) 100,00 %
19.02.2019 03:07 3,4 C -0,6 C 64 % 1020,8 hPa 0,0 l/m 4,8 km/h (1 Bft) W 270 0,000 mm 0,0 UV-I 0 W/m -2,7 C 3,4 C 6,4 km/h (2 Bft) 100,00 %
19.02.2019 03:06 3,4 C -0,6 C 65 % 1020,9 hPa 0,0 l/m 3,2 km/h (1 Bft) W 270 0,000 mm 0,0 UV-I 0 W/m -2,5 C 3,4 C 4,8 km/h (1 Bft) 95,65 %
19.02.2019 03:05 3,4 C -0,6 C 65 % 1020,8 hPa 0,0 l/m 3,2 km/h (1 Bft) W 270 0,000 mm 0,0 UV-I 0 W/m -2,5 C 3,4 C 4,8 km/h (1 Bft) 100,00 %
19.02.2019 03:04 3,3 C -1,1 C 65 % 1020,8 hPa 0,0 l/m 3,2 km/h (1 Bft) W 270 0,000 mm 0,0 UV-I 0 W/m -2,6 C 3,3 C 4,8 km/h (1 Bft) 100,00 %
19.02.2019 03:03 3,4 C -1,1 C 65 % 1020,8 hPa 0,0 l/m 0,0 km/h (0 Bft) W 270 0,000 mm 0,0 UV-I 0 W/m -2,5 C 3,4 C 3,2 km/h (1 Bft) 100,00 %
19.02.2019 03:02 3,4 C -1,1 C 65 % 1020,8 hPa 0,0 l/m 1,6 km/h (1 Bft) W 270 0,000 mm 0,0 UV-I 0 W/m -2,5 C 3,4 C 4,8 km/h (1 Bft) 100,00 %
19.02.2019 03:01 3,4 C -1,1 C 65 % 1020,7 hPa 0,0 l/m 3,2 km/h (1 Bft) W 270 0,000 mm 0,0 UV-I 0 W/m -2,5 C 3,4 C 4,8 km/h (1 Bft) 100,00 %
19.02.2019 03:00 3,5 C -1,1 C 65 % 1020,8 hPa 0,0 l/m 3,2 km/h (1 Bft) W 270 0,025 mm 0,0 UV-I 0 W/m -2,4 C 3,5 C 4,8 km/h (1 Bft) 100,00 %
19.02.2019 02:59 3,5 C -1,1 C 65 % 1020,8 hPa 0,0 l/m 4,8 km/h (1 Bft) W 270 0,000 mm 0,0 UV-I 0 W/m -2,4 C 3,5 C 6,4 km/h (2 Bft) 91,30 %
19.02.2019 02:58 3,5 C -0,6 C 65 % 1020,8 hPa 0,0 l/m 6,4 km/h (2 Bft) W 270 0,000 mm 0,0 UV-I 0 W/m -2,4 C 3,5 C 9,7 km/h (2 Bft) 100,00 %
19.02.2019 02:57 3,6 C -0,6 C 65 % 1020,8 hPa 0,0 l/m 3,2 km/h (1 Bft) W 270 0,000 mm 0,0 UV-I 0 W/m -2,4 C 3,6 C 6,4 km/h (2 Bft) 95,65 %
19.02.2019 02:56 3,6 C -0,6 C 65 % 1020,8 hPa 0,0 l/m 4,8 km/h (1 Bft) W 270 0,000 mm 0,0 UV-I 0 W/m -2,4 C 3,6 C 9,7 km/h (2 Bft) 100,00 %
19.02.2019 02:55 3,6 C -0,6 C 65 % 1020,8 hPa 0,0 l/m 8,0 km/h (2 Bft) W 270 0,000 mm 0,0 UV-I 0 W/m -2,4 C 2,1 C 11,3 km/h (2 Bft) 95,65 %
19.02.2019 02:54 3,6 C -0,6 C 65 % 1020,8 hPa 0,0 l/m 8,0 km/h (2 Bft) W 270 0,000 mm 0,0 UV-I 0 W/m -2,4 C 2,1 C 11,3 km/h (2 Bft) 95,65 %
19.02.2019 02:53 3,6 C -0,6 C 66 % 1020,8 hPa 0,0 l/m 8,0 km/h (2 Bft) W 270 0,000 mm 0,0 UV-I 0 W/m -2,1 C 2,1 C 12,9 km/h (3 Bft) 91,30 %
19.02.2019 02:52 3,5 C 0,0 C 66 % 1020,8 hPa 0,0 l/m 8,0 km/h (2 Bft) W 270 0,000 mm 0,0 UV-I 0 W/m -2,2 C 2,0 C 12,9 km/h (3 Bft) 91,30 %
19.02.2019 02:51 3,4 C -0,6 C 67 % 1020,9 hPa 0,0 l/m 8,0 km/h (2 Bft) W-NW 292 0,000 mm 0,0 UV-I 0 W/m -2,1 C 1,9 C 11,3 km/h (2 Bft) 95,65 %
19.02.2019 02:50 3,5 C -0,6 C 67 % 1020,8 hPa 0,0 l/m 4,8 km/h (1 Bft) W-NW 292 0,000 mm 0,0 UV-I 0 W/m -2,0 C 3,5 C 8,0 km/h (2 Bft) 95,65 %
19.02.2019 02:49 3,6 C -0,6 C 67 % 1020,9 hPa 0,0 l/m 4,8 km/h (1 Bft) W-NW 292 0,000 mm 0,0 UV-I 0 W/m -1,9 C 3,6 C 6,4 km/h (2 Bft) 95,65 %
19.02.2019 02:48 3,6 C -0,6 C 68 % 1020,9 hPa 0,0 l/m 4,8 km/h (1 Bft) W-NW 292 0,000 mm 0,0 UV-I 0 W/m -1,7 C 3,6 C 8,0 km/h (2 Bft) 95,65 %
19.02.2019 02:47 3,6 C -0,6 C 68 % 1020,9 hPa 0,0 l/m 4,8 km/h (1 Bft) W-NW 292 0,000 mm 0,0 UV-I 0 W/m -1,7 C 3,6 C 8,0 km/h (2 Bft) 91,30 %
19.02.2019 02:46 3,5 C -0,6 C 68 % 1020,9 hPa 0,0 l/m 6,4 km/h (2 Bft) W-NW 292 0,000 mm 0,0 UV-I 0 W/m -1,8 C 3,5 C 8,0 km/h (2 Bft) 91,30 %
19.02.2019 02:45 3,5 C -0,6 C 69 % 1020,9 hPa 0,0 l/m 6,4 km/h (2 Bft) W-NW 292 0,000 mm 0,0 UV-I 0 W/m -1,6 C 3,5 C 8,0 km/h (2 Bft) 82,61 %
19.02.2019 02:44 3,5 C -0,6 C 69 % 1020,9 hPa 0,0 l/m 4,8 km/h (1 Bft) W-NW 292 0,000 mm 0,0 UV-I 0 W/m -1,6 C 3,5 C 6,4 km/h (2 Bft) 100,00 %
19.02.2019 02:43 3,5 C -0,6 C 69 % 1020,9 hPa 0,0 l/m 3,2 km/h (1 Bft) W-NW 292 0,000 mm 0,0 UV-I 0 W/m -1,6 C 3,5 C 6,4 km/h (2 Bft) 91,30 %
19.02.2019 02:42 3,5 C -1,1 C 70 % 1020,8 hPa 0,0 l/m 4,8 km/h (1 Bft) W-NW 292 0,000 mm 0,0 UV-I 0 W/m -1,4 C 3,5 C 11,3 km/h (2 Bft) 95,65 %
19.02.2019 02:41 3,4 C -1,1 C 70 % 1020,9 hPa 0,0 l/m 6,4 km/h (2 Bft) W-NW 292 0,000 mm 0,0 UV-I 0 W/m -1,5 C 3,4 C 8,0 km/h (2 Bft) 95,65 %
19.02.2019 02:40 3,5 C -0,6 C 70 % 1020,9 hPa 0,0 l/m 6,4 km/h (2 Bft) W-NW 292 0,000 mm 0,0 UV-I 0 W/m -1,4 C 3,5 C 11,3 km/h (2 Bft) 95,65 %
19.02.2019 02:39 3,5 C -0,6 C 71 % 1020,8 hPa 0,0 l/m 6,4 km/h (2 Bft) W-NW 292 0,000 mm 0,0 UV-I 0 W/m -1,3 C 3,5 C 11,3 km/h (2 Bft) 91,30 %
19.02.2019 02:38 3,5 C -0,6 C 71 % 1020,8 hPa 0,0 l/m 4,8 km/h (1 Bft) W-NW 292 0,000 mm 0,0 UV-I 0 W/m -1,3 C 3,5 C 8,0 km/h (2 Bft) 95,65 %
19.02.2019 02:37 3,6 C -0,6 C 71 % 1020,8 hPa 0,0 l/m 6,4 km/h (2 Bft) W-NW 292 0,000 mm 0,0 UV-I 0 W/m -1,2 C 3,6 C 11,3 km/h (2 Bft) 91,30 %
19.02.2019 02:36 3,7 C -0,6 C 71 % 1020,8 hPa 0,0 l/m 4,8 km/h (1 Bft) W-NW 292 0,000 mm 0,0 UV-I 0 W/m -1,1 C 3,7 C 6,4 km/h (2 Bft) 95,65 %
19.02.2019 02:35 3,7 C -0,6 C 71 % 1020,8 hPa 0,0 l/m 6,4 km/h (2 Bft) W-NW 292 0,000 mm 0,0 UV-I 0 W/m -1,1 C 3,7 C 8,0 km/h (2 Bft) 100,00 %
19.02.2019 02:34 3,8 C -0,6 C 71 % 1020,8 hPa 0,0 l/m 6,4 km/h (2 Bft) W-NW 292 0,000 mm 0,0 UV-I 0 W/m -1,0 C 3,8 C 11,3 km/h (2 Bft) 91,30 %
19.02.2019 02:33 3,7 C -0,6 C 72 % 1020,8 hPa 0,0 l/m 8,0 km/h (2 Bft) W-NW 292 0,000 mm 0,0 UV-I 0 W/m -0,9 C 2,2 C 11,3 km/h (2 Bft) 100,00 %
19.02.2019 02:32 3,7 C -1,1 C 72 % 1020,8 hPa 0,0 l/m 8,0 km/h (2 Bft) W-NW 292 0,000 mm 0,0 UV-I 0 W/m -0,9 C 2,2 C 11,3 km/h (2 Bft) 95,65 %
19.02.2019 02:31 3,7 C -1,1 C 72 % 1020,8 hPa 0,0 l/m 8,0 km/h (2 Bft) W-NW 292 0,000 mm 0,0 UV-I 0 W/m -0,9 C 2,2 C 11,3 km/h (2 Bft) 95,65 %
19.02.2019 02:30 3,7 C -1,1 C 73 % 1020,8 hPa 0,0 l/m 8,0 km/h (2 Bft) W-NW 292 0,000 mm 0,0 UV-I 0 W/m -0,7 C 2,2 C 11,3 km/h (2 Bft) 100,00 %
19.02.2019 02:29 3,7 C -1,1 C 73 % 1020,8 hPa 0,0 l/m 8,0 km/h (2 Bft) W-NW 292 0,000 mm 0,0 UV-I 0 W/m -0,7 C 2,2 C 11,3 km/h (2 Bft) 95,65 %
19.02.2019 02:28 3,7 C -1,1 C 73 % 1020,8 hPa 0,0 l/m 8,0 km/h (2 Bft) W-NW 292 0,000 mm 0,0 UV-I 0 W/m -0,7 C 2,2 C 11,3 km/h (2 Bft) 91,30 %
19.02.2019 02:27 3,7 C -0,6 C 74 % 1020,8 hPa 0,0 l/m 8,0 km/h (2 Bft) W-NW 292 0,000 mm 0,0 UV-I 0 W/m -0,5 C 2,2 C 11,3 km/h (2 Bft) 95,65 %
19.02.2019 02:26 3,7 C -0,6 C 74 % 1020,8 hPa 0,0 l/m 9,7 km/h (2 Bft) W-NW 292 0,000 mm 0,0 UV-I 0 W/m -0,5 C 0,9 C 11,3 km/h (2 Bft) 95,65 %
19.02.2019 02:25 3,6 C -1,1 C 74 % 1020,9 hPa 0,0 l/m 8,0 km/h (2 Bft) W-NW 292 0,000 mm 0,0 UV-I 0 W/m -0,6 C 2,1 C 11,3 km/h (2 Bft) 100,00 %
19.02.2019 02:24 3,7 C -0,6 C 74 % 1020,8 hPa 0,0 l/m 9,7 km/h (2 Bft) W-NW 292 0,000 mm 0,0 UV-I 0 W/m -0,5 C 0,9 C 11,3 km/h (2 Bft) 95,65 %
19.02.2019 02:23 3,7 C -0,6 C 74 % 1020,8 hPa 0,0 l/m 9,7 km/h (2 Bft) W-NW 292 0,000 mm 0,0 UV-I 0 W/m -0,5 C 0,9 C 11,3 km/h (2 Bft) 100,00 %
19.02.2019 02:22 3,6 C -0,6 C 74 % 1020,8 hPa 0,0 l/m 8,0 km/h (2 Bft) W-NW 292 0,000 mm 0,0 UV-I 0 W/m -0,6 C 2,1 C 11,3 km/h (2 Bft) 95,65 %
19.02.2019 02:21 3,6 C -0,6 C 74 % 1020,9 hPa 0,0 l/m 9,7 km/h (2 Bft) W-NW 292 0,000 mm 0,0 UV-I 0 W/m -0,6 C 0,8 C 11,3 km/h (2 Bft) 100,00 %
19.02.2019 02:20 3,7 C -0,6 C 74 % 1020,8 hPa 0,0 l/m 8,0 km/h (2 Bft) W-NW 292 0,000 mm 0,0 UV-I 0 W/m -0,5 C 2,2 C 11,3 km/h (2 Bft) 100,00 %
19.02.2019 02:19 3,7 C -0,6 C 74 % 1020,8 hPa 0,0 l/m 8,0 km/h (2 Bft) W-NW 292 0,000 mm 0,0 UV-I 0 W/m -0,5 C 2,2 C 11,3 km/h (2 Bft) 100,00 %
19.02.2019 02:18 3,7 C -0,6 C 75 % 1020,9 hPa 0,0 l/m 6,4 km/h (2 Bft) W-NW 292 0,000 mm 0,0 UV-I 0 W/m -0,3 C 3,7 C 8,0 km/h (2 Bft) 100,00 %
19.02.2019 02:17 3,6 C -0,6 C 75 % 1020,8 hPa 0,0 l/m 8,0 km/h (2 Bft) W-NW 292 0,000 mm 0,0 UV-I 0 W/m -0,4 C 2,1 C 8,0 km/h (2 Bft) 95,65 %
19.02.2019 02:16 3,6 C -0,6 C 75 % 1020,9 hPa 0,0 l/m 8,0 km/h (2 Bft) W-NW 292 0,000 mm 0,0 UV-I 0 W/m -0,4 C 2,1 C 8,0 km/h (2 Bft) 100,00 %
19.02.2019 02:15 3,6 C -1,1 C 75 % 1020,8 hPa 0,0 l/m 6,4 km/h (2 Bft) W-NW 292 0,000 mm 0,0 UV-I 0 W/m -0,4 C 3,6 C 8,0 km/h (2 Bft) 100,00 %
19.02.2019 02:14 3,5 C -0,6 C 75 % 1020,8 hPa 0,0 l/m 6,4 km/h (2 Bft) W-NW 292 0,000 mm 0,0 UV-I 0 W/m -0,5 C 3,5 C 8,0 km/h (2 Bft) 95,65 %
19.02.2019 02:13 3,5 C -0,6 C 75 % 1020,9 hPa 0,0 l/m 6,4 km/h (2 Bft) NW 315 0,000 mm 0,0 UV-I 0 W/m -0,5 C 3,5 C 8,0 km/h (2 Bft) 95,65 %
19.02.2019 02:12 3,4 C -1,1 C 76 % 1020,8 hPa 0,0 l/m 6,4 km/h (2 Bft) NW 315 0,000 mm 0,0 UV-I 0 W/m -0,4 C 3,4 C 8,0 km/h (2 Bft) 95,65 %
19.02.2019 02:11 3,3 C -1,1 C 76 % 1020,9 hPa 0,0 l/m 8,0 km/h (2 Bft) NW 315 0,000 mm 0,0 UV-I 0 W/m -0,5 C 1,8 C 9,7 km/h (2 Bft) 95,65 %
19.02.2019 02:10 3,3 C -1,1 C 76 % 1020,9 hPa 0,0 l/m 9,7 km/h (2 Bft) NW 315 0,000 mm 0,0 UV-I 0 W/m -0,5 C 0,4 C 9,7 km/h (2 Bft) 95,65 %
19.02.2019 02:09 3,3 C -1,1 C 77 % 1020,9 hPa 0,0 l/m 8,0 km/h (2 Bft) NW 315 0,000 mm 0,0 UV-I 0 W/m -0,3 C 1,8 C 9,7 km/h (2 Bft) 100,00 %
19.02.2019 02:08 3,3 C -1,1 C 77 % 1020,8 hPa 0,0 l/m 8,0 km/h (2 Bft) N-NW 337 0,000 mm 0,0 UV-I 0 W/m -0,3 C 1,8 C 9,7 km/h (2 Bft) 95,65 %
19.02.2019 02:07 3,3 C -1,1 C 77 % 1020,9 hPa 0,0 l/m 8,0 km/h (2 Bft) N-NW 337 0,000 mm 0,0 UV-I 0 W/m -0,3 C 1,8 C 9,7 km/h (2 Bft) 95,65 %
19.02.2019 02:06 3,2 C -1,1 C 77 % 1020,8 hPa 0,0 l/m 8,0 km/h (2 Bft) N-NW 337 0,000 mm 0,0 UV-I 0 W/m -0,4 C 1,7 C 9,7 km/h (2 Bft) 91,30 %
19.02.2019 02:05 3,2 C -1,1 C 77 % 1020,9 hPa 0,0 l/m 8,0 km/h (2 Bft) N-NW 337 0,000 mm 0,0 UV-I 0 W/m -0,4 C 1,7 C 9,7 km/h (2 Bft) 100,00 %
19.02.2019 02:04 3,3 C -1,1 C 77 % 1020,9 hPa 0,0 l/m 6,4 km/h (2 Bft) N-NW 337 0,000 mm 0,0 UV-I 0 W/m -0,3 C 3,3 C 8,0 km/h (2 Bft) 95,65 %
19.02.2019 02:03 3,3 C -1,1 C 76 % 1020,9 hPa 0,0 l/m 6,4 km/h (2 Bft) N-NW 337 0,000 mm 0,0 UV-I 0 W/m -0,5 C 3,3 C 9,7 km/h (2 Bft) 91,30 %
19.02.2019 02:02 3,3 C -1,1 C 76 % 1020,8 hPa 0,0 l/m 6,4 km/h (2 Bft) N-NW 337 0,000 mm 0,0 UV-I 0 W/m -0,5 C 3,3 C 9,7 km/h (2 Bft) 91,30 %
19.02.2019 02:01 3,2 C -1,1 C 77 % 1020,8 hPa 0,0 l/m 6,4 km/h (2 Bft) N-NW 337 0,000 mm 0,0 UV-I 0 W/m -0,4 C 3,2 C 9,7 km/h (2 Bft) 100,00 %
19.02.2019 02:00 3,2 C -1,1 C 77 % 1020,9 hPa 0,0 l/m 6,4 km/h (2 Bft) N-NW 337 0,025 mm 0,0 UV-I 0 W/m -0,4 C 3,2 C 9,7 km/h (2 Bft) 91,30 %
19.02.2019 01:59 3,2 C -1,1 C 77 % 1020,9 hPa 0,0 l/m 6,4 km/h (2 Bft) N-NW 337 0,000 mm 0,0 UV-I 0 W/m -0,4 C 3,2 C 8,0 km/h (2 Bft) 100,00 %
19.02.2019 01:58 3,3 C -0,6 C 76 % 1020,9 hPa 0,0 l/m 6,4 km/h (2 Bft) N-NO 22 0,000 mm 0,0 UV-I 0 W/m -0,5 C 3,3 C 6,4 km/h (2 Bft) 95,65 %
19.02.2019 01:57 3,3 C -0,6 C 76 % 1020,9 hPa 0,0 l/m 6,4 km/h (2 Bft) N-NO 22 0,000 mm 0,0 UV-I 0 W/m -0,5 C 3,3 C 6,4 km/h (2 Bft) 100,00 %
19.02.2019 01:56 3,3 C -0,6 C 76 % 1020,9 hPa 0,0 l/m 6,4 km/h (2 Bft) N-NO 22 0,000 mm 0,0 UV-I 0 W/m -0,5 C 3,3 C 6,4 km/h (2 Bft) 86,96 %
19.02.2019 01:55 3,3 C -0,6 C 76 % 1020,9 hPa 0,0 l/m 4,8 km/h (1 Bft) N-NO 22 0,000 mm 0,0 UV-I 0 W/m -0,5 C 3,3 C 6,4 km/h (2 Bft) 95,65 %
19.02.2019 01:54 3,4 C -0,6 C 76 % 1020,9 hPa 0,0 l/m 4,8 km/h (1 Bft) N-NO 22 0,000 mm 0,0 UV-I 0 W/m -0,4 C 3,4 C 6,4 km/h (2 Bft) 95,65 %
19.02.2019 01:53 3,4 C -0,6 C 76 % 1020,8 hPa 0,0 l/m 4,8 km/h (1 Bft) N-NO 22 0,000 mm 0,0 UV-I 0 W/m -0,4 C 3,4 C 6,4 km/h (2 Bft) 100,00 %
19.02.2019 01:52 3,4 C -0,6 C 76 % 1020,9 hPa 0,0 l/m 6,4 km/h (2 Bft) N-NO 22 0,000 mm 0,0 UV-I 0 W/m -0,4 C 3,4 C 6,4 km/h (2 Bft) 100,00 %
19.02.2019 01:51 3,4 C -0,6 C 76 % 1020,8 hPa 0,0 l/m 4,8 km/h (1 Bft) N-NO 22 0,000 mm 0,0 UV-I 0 W/m -0,4 C 3,4 C 6,4 km/h (2 Bft) 100,00 %
19.02.2019 01:50 3,5 C -0,6 C 76 % 1020,8 hPa 0,0 l/m 4,8 km/h (1 Bft) N-NO 22 0,000 mm 0,0 UV-I 0 W/m -0,3 C 3,5 C 6,4 km/h (2 Bft) 100,00 %
19.02.2019 01:49 3,5 C 0,0 C 76 % 1020,8 hPa 0,0 l/m 4,8 km/h (1 Bft) N-NO 22 0,000 mm 0,0 UV-I 0 W/m -0,3 C 3,5 C 4,8 km/h (1 Bft) 91,30 %
19.02.2019 01:48 3,6 C 0,0 C 76 % 1020,8 hPa 0,0 l/m 4,8 km/h (1 Bft) N-NO 22 0,000 mm 0,0 UV-I 0 W/m -0,2 C 3,6 C 6,4 km/h (2 Bft) 100,00 %
19.02.2019 01:47 3,6 C 0,0 C 76 % 1020,8 hPa 0,0 l/m 3,2 km/h (1 Bft) N-NO 22 0,000 mm 0,0 UV-I 0 W/m -0,2 C 3,6 C 4,8 km/h (1 Bft) 100,00 %
19.02.2019 01:46 3,6 C 0,0 C 75 % 1020,8 hPa 0,0 l/m 3,2 km/h (1 Bft) N-NO 22 0,000 mm 0,0 UV-I 0 W/m -0,4 C 3,6 C 4,8 km/h (1 Bft) 100,00 %
19.02.2019 01:45 3,6 C 0,0 C 75 % 1020,8 hPa 0,0 l/m 4,8 km/h (1 Bft) N-NO 22 0,000 mm 0,0 UV-I 0 W/m -0,4 C 3,6 C 4,8 km/h (1 Bft) 100,00 %
19.02.2019 01:44 3,7 C 0,0 C 75 % 1020,8 hPa 0,0 l/m 3,2 km/h (1 Bft) N-NO 22 0,000 mm 0,0 UV-I 0 W/m -0,3 C 3,7 C 4,8 km/h (1 Bft) 100,00 %
19.02.2019 01:43 3,7 C 0,0 C 75 % 1020,8 hPa 0,0 l/m 3,2 km/h (1 Bft) N-NO 22 0,000 mm 0,0 UV-I 0 W/m -0,3 C 3,7 C 4,8 km/h (1 Bft) 100,00 %
19.02.2019 01:42 3,7 C 0,0 C 75 % 1020,8 hPa 0,0 l/m 3,2 km/h (1 Bft) N-NO 22 0,000 mm 0,0 UV-I 0 W/m -0,3 C 3,7 C 3,2 km/h (1 Bft) 95,65 %
19.02.2019 01:41 3,8 C 0,0 C 75 % 1020,8 hPa 0,0 l/m 1,6 km/h (1 Bft) N-NO 22 0,000 mm 0,0 UV-I 0 W/m -0,2 C 3,8 C 3,2 km/h (1 Bft) 100,00 %
19.02.2019 01:40 3,8 C 0,0 C 75 % 1020,8 hPa 0,0 l/m 3,2 km/h (1 Bft) N-NO 22 0,000 mm 0,0 UV-I 0 W/m -0,2 C 3,8 C 3,2 km/h (1 Bft) 100,00 %
19.02.2019 01:39 3,8 C 0,0 C 75 % 1020,8 hPa 0,0 l/m 3,2 km/h (1 Bft) N-NO 22 0,000 mm 0,0 UV-I 0 W/m -0,2 C 3,8 C 4,8 km/h (1 Bft) 100,00 %
19.02.2019 01:38 3,8 C 0,0 C 75 % 1020,8 hPa 0,0 l/m 3,2 km/h (1 Bft) N-NO 22 0,000 mm 0,0 UV-I 0 W/m -0,2 C 3,8 C 4,8 km/h (1 Bft) 100,00 %
19.02.2019 01:37 3,9 C 0,0 C 75 % 1020,8 hPa 0,0 l/m 3,2 km/h (1 Bft) N-NO 22 0,000 mm 0,0 UV-I 0 W/m -0,1 C 3,9 C 4,8 km/h (1 Bft) 100,00 %
19.02.2019 01:36 3,9 C 0,0 C 75 % 1020,8 hPa 0,0 l/m 4,8 km/h (1 Bft) N-NO 22 0,000 mm 0,0 UV-I 0 W/m -0,1 C 3,9 C 4,8 km/h (1 Bft) 95,65 %
19.02.2019 01:35 3,9 C 0,6 C 74 % 1020,8 hPa 0,0 l/m 4,8 km/h (1 Bft) N-NO 22 0,000 mm 0,0 UV-I 0 W/m -0,3 C 3,9 C 4,8 km/h (1 Bft) 91,30 %
19.02.2019 01:34 3,9 C 0,6 C 75 % 1020,8 hPa 0,0 l/m 4,8 km/h (1 Bft) N-NO 22 0,000 mm 0,0 UV-I 0 W/m -0,1 C 3,9 C 4,8 km/h (1 Bft) 95,65 %
19.02.2019 01:33 3,9 C 0,6 C 75 % 1020,8 hPa 0,0 l/m 4,8 km/h (1 Bft) N-NO 22 0,000 mm 0,0 UV-I 0 W/m -0,1 C 3,9 C 4,8 km/h (1 Bft) 100,00 %
19.02.2019 01:32 3,9 C 0,6 C 74 % 1020,8 hPa 0,0 l/m 3,2 km/h (1 Bft) N-NO 22 0,000 mm 0,0 UV-I 0 W/m -0,3 C 3,9 C 4,8 km/h (1 Bft) 95,65 %
19.02.2019 01:31 4,0 C 0,6 C 74 % 1020,9 hPa 0,0 l/m 4,8 km/h (1 Bft) N-NO 22 0,000 mm 0,0 UV-I 0 W/m -0,2 C 4,0 C 4,8 km/h (1 Bft) 95,65 %
19.02.2019 01:30 4,0 C 0,6 C 74 % 1020,8 hPa 0,0 l/m 3,2 km/h (1 Bft) N-NO 22 0,000 mm 0,0 UV-I 0 W/m -0,2 C 4,0 C 4,8 km/h (1 Bft) 95,65 %
19.02.2019 01:29 4,1 C 0,0 C 74 % 1020,8 hPa 0,0 l/m 3,2 km/h (1 Bft) N-NO 22 0,000 mm 0,0 UV-I 0 W/m -0,1 C 4,1 C 4,8 km/h (1 Bft) 100,00 %
19.02.2019 01:28 4,1 C 0,0 C 74 % 1020,8 hPa 0,0 l/m 3,2 km/h (1 Bft) N-NO 22 0,000 mm 0,0 UV-I 0 W/m -0,1 C 4,1 C 4,8 km/h (1 Bft) 100,00 %
19.02.2019 01:27 4,1 C 0,0 C 74 % 1020,7 hPa 0,0 l/m 4,8 km/h (1 Bft) N-NO 22 0,000 mm 0,0 UV-I 0 W/m -0,1 C 4,1 C 6,4 km/h (2 Bft) 86,96 %
19.02.2019 01:26 4,1 C 0,0 C 74 % 1020,8 hPa 0,0 l/m 4,8 km/h (1 Bft) N-NO 22 0,000 mm 0,0 UV-I 0 W/m -0,1 C 4,1 C 4,8 km/h (1 Bft) 95,65 %
19.02.2019 01:25 4,1 C 0,0 C 74 % 1020,8 hPa 0,0 l/m 4,8 km/h (1 Bft) N-NO 22 0,000 mm 0,0 UV-I 0 W/m -0,1 C 4,1 C 4,8 km/h (1 Bft) 100,00 %
19.02.2019 01:24 4,1 C 0,0 C 74 % 1020,8 hPa 0,0 l/m 4,8 km/h (1 Bft) N-NO 22 0,000 mm 0,0 UV-I 0 W/m -0,1 C 4,1 C 6,4 km/h (2 Bft) 95,65 %
19.02.2019 01:23 4,1 C 0,0 C 74 % 1020,8 hPa 0,0 l/m 4,8 km/h (1 Bft) N-NO 22 0,000 mm 0,0 UV-I 0 W/m -0,1 C 4,1 C 6,4 km/h (2 Bft) 100,00 %
19.02.2019 01:22 4,2 C 0,0 C 74 % 1020,8 hPa 0,0 l/m 4,8 km/h (1 Bft) N-NO 22 0,000 mm 0,0 UV-I 0 W/m -0,0 C 4,2 C 6,4 km/h (2 Bft) 100,00 %
19.02.2019 01:21 4,1 C 0,0 C 74 % 1020,8 hPa 0,0 l/m 4,8 km/h (1 Bft) N-NO 22 0,000 mm 0,0 UV-I 0 W/m -0,1 C 4,1 C 6,4 km/h (2 Bft) 95,65 %
19.02.2019 01:20 4,1 C 0,0 C 74 % 1020,7 hPa 0,0 l/m 4,8 km/h (1 Bft) NO 45 0,000 mm 0,0 UV-I 0 W/m -0,1 C 4,1 C 6,4 km/h (2 Bft) 95,65 %
19.02.2019 01:19 4,1 C 0,0 C 74 % 1020,8 hPa 0,0 l/m 4,8 km/h (1 Bft) NO 45 0,000 mm 0,0 UV-I 0 W/m -0,1 C 4,1 C 6,4 km/h (2 Bft) 95,65 %
19.02.2019 01:18 4,0 C 0,0 C 74 % 1020,8 hPa 0,0 l/m 4,8 km/h (1 Bft) NO 45 0,000 mm 0,0 UV-I 0 W/m -0,2 C 4,0 C 6,4 km/h (2 Bft) 100,00 %
19.02.2019 01:17 4,0 C 0,0 C 74 % 1020,8 hPa 0,0 l/m 4,8 km/h (1 Bft) NO 45 0,000 mm 0,0 UV-I 0 W/m -0,2 C 4,0 C 4,8 km/h (1 Bft) 91,30 %
19.02.2019 01:16 4,0 C 0,0 C 74 % 1020,8 hPa 0,0 l/m 3,2 km/h (1 Bft) NO 45 0,000 mm 0,0 UV-I 0 W/m -0,2 C 4,0 C 4,8 km/h (1 Bft) 100,00 %
19.02.2019 01:15 3,9 C 0,0 C 74 % 1020,8 hPa 0,0 l/m 4,8 km/h (1 Bft) NO 45 0,000 mm 0,0 UV-I 0 W/m -0,3 C 3,9 C 4,8 km/h (1 Bft) 86,96 %
19.02.2019 01:14 4,0 C 0,0 C 74 % 1020,8 hPa 0,0 l/m 4,8 km/h (1 Bft) NO 45 0,000 mm 0,0 UV-I 0 W/m -0,2 C 4,0 C 4,8 km/h (1 Bft) 95,65 %
19.02.2019 01:13 4,0 C 0,0 C 74 % 1020,8 hPa 0,0 l/m 3,2 km/h (1 Bft) NO 45 0,000 mm 0,0 UV-I 0 W/m -0,2 C 4,0 C 4,8 km/h (1 Bft) 86,96 %
19.02.2019 01:12 4,0 C 0,0 C 74 % 1020,7 hPa 0,0 l/m 3,2 km/h (1 Bft) NO 45 0,000 mm 0,0 UV-I 0 W/m -0,2 C 4,0 C 4,8 km/h (1 Bft) 95,65 %
19.02.2019 01:11 4,1 C 0,0 C 74 % 1020,8 hPa 0,0 l/m 4,8 km/h (1 Bft) NO 45 0,000 mm 0,0 UV-I 0 W/m -0,1 C 4,1 C 4,8 km/h (1 Bft) 86,96 %
19.02.2019 01:10 4,1 C 0,0 C 74 % 1020,8 hPa 0,0 l/m 3,2 km/h (1 Bft) NO 45 0,000 mm 0,0 UV-I 0 W/m -0,1 C 4,1 C 4,8 km/h (1 Bft) 95,65 %
19.02.2019 01:09 4,1 C 0,0 C 74 % 1020,8 hPa 0,0 l/m 3,2 km/h (1 Bft) NO 45 0,000 mm 0,0 UV-I 0 W/m -0,1 C 4,1 C 4,8 km/h (1 Bft) 91,30 %
19.02.2019 01:08 4,2 C 0,0 C 73 % 1020,8 hPa 0,0 l/m 3,2 km/h (1 Bft) NO 45 0,000 mm 0,0 UV-I 0 W/m -0,2 C 4,2 C 4,8 km/h (1 Bft) 91,30 %
19.02.2019 01:07 4,2 C 0,6 C 73 % 1020,8 hPa 0,0 l/m 4,8 km/h (1 Bft) NO 45 0,000 mm 0,0 UV-I 0 W/m -0,2 C 4,2 C 4,8 km/h (1 Bft) 95,65 %
19.02.2019 01:06 4,3 C 0,6 C 73 % 1020,8 hPa 0,0 l/m 4,8 km/h (1 Bft) NO 45 0,000 mm 0,0 UV-I 0 W/m -0,1 C 4,3 C 4,8 km/h (1 Bft) 86,96 %
19.02.2019 01:05 4,3 C 0,6 C 73 % 1020,8 hPa 0,0 l/m 3,2 km/h (1 Bft) NO 45 0,000 mm 0,0 UV-I 0 W/m -0,1 C 4,3 C 4,8 km/h (1 Bft) 100,00 %
19.02.2019 01:04 4,3 C 0,6 C 73 % 1020,8 hPa 0,0 l/m 3,2 km/h (1 Bft) NO 45 0,000 mm 0,0 UV-I 0 W/m -0,1 C 4,3 C 4,8 km/h (1 Bft) 95,65 %
19.02.2019 01:03 4,3 C 0,6 C 73 % 1020,8 hPa 0,0 l/m 4,8 km/h (1 Bft) NO 45 0,000 mm 0,0 UV-I 0 W/m -0,1 C 4,3 C 4,8 km/h (1 Bft) 95,65 %
19.02.2019 01:02 4,3 C 0,6 C 73 % 1020,8 hPa 0,0 l/m 4,8 km/h (1 Bft) NO 45 0,000 mm 0,0 UV-I 0 W/m -0,1 C 4,3 C 4,8 km/h (1 Bft) 91,30 %
19.02.2019 01:01 4,3 C 0,6 C 73 % 1020,7 hPa 0,0 l/m 4,8 km/h (1 Bft) NO 45 0,000 mm 0,0 UV-I 0 W/m -0,1 C 4,3 C 4,8 km/h (1 Bft) 95,65 %
19.02.2019 01:00 4,3 C 0,6 C 73 % 1020,7 hPa 0,0 l/m 3,2 km/h (1 Bft) NO 45 0,025 mm 0,0 UV-I 0 W/m -0,1 C 4,3 C 4,8 km/h (1 Bft) 100,00 %
19.02.2019 00:59 4,3 C 0,6 C 73 % 1020,8 hPa 0,0 l/m 3,2 km/h (1 Bft) NO 45 0,000 mm 0,0 UV-I 0 W/m -0,1 C 4,3 C 4,8 km/h (1 Bft) 91,30 %
19.02.2019 00:58 4,3 C 0,6 C 73 % 1020,8 hPa 0,0 l/m 3,2 km/h (1 Bft) NO 45 0,000 mm 0,0 UV-I 0 W/m -0,1 C 4,3 C 4,8 km/h (1 Bft) 95,65 %
19.02.2019 00:57 4,3 C 0,6 C 73 % 1020,8 hPa 0,0 l/m 3,2 km/h (1 Bft) NO 45 0,000 mm 0,0 UV-I 0 W/m -0,1 C 4,3 C 4,8 km/h (1 Bft) 95,65 %
19.02.2019 00:56 4,3 C 0,6 C 73 % 1020,8 hPa 0,0 l/m 4,8 km/h (1 Bft) NO 45 0,000 mm 0,0 UV-I 0 W/m -0,1 C 4,3 C 4,8 km/h (1 Bft) 95,65 %
19.02.2019 00:55 4,4 C 0,6 C 73 % 1020,8 hPa 0,0 l/m 4,8 km/h (1 Bft) NO 45 0,000 mm 0,0 UV-I 0 W/m -0,0 C 4,4 C 4,8 km/h (1 Bft) 91,30 %
19.02.2019 00:54 4,4 C 0,6 C 72 % 1020,8 hPa 0,0 l/m 4,8 km/h (1 Bft) NO 45 0,000 mm 0,0 UV-I 0 W/m -0,2 C 4,4 C 4,8 km/h (1 Bft) 100,00 %
19.02.2019 00:53 4,5 C 0,6 C 72 % 1020,8 hPa 0,0 l/m 4,8 km/h (1 Bft) NO 45 0,000 mm 0,0 UV-I 0 W/m -0,1 C 4,5 C 6,4 km/h (2 Bft) 95,65 %
19.02.2019 00:52 4,5 C 0,6 C 72 % 1020,8 hPa 0,0 l/m 4,8 km/h (1 Bft) NO 45 0,000 mm 0,0 UV-I 0 W/m -0,1 C 4,5 C 6,4 km/h (2 Bft) 91,30 %
19.02.2019 00:51 4,6 C 0,6 C 72 % 1020,8 hPa 0,0 l/m 4,8 km/h (1 Bft) NO 45 0,000 mm 0,0 UV-I 0 W/m -0,0 C 4,6 C 4,8 km/h (1 Bft) 95,65 %
19.02.2019 00:50 4,6 C 0,6 C 72 % 1020,9 hPa 0,0 l/m 4,8 km/h (1 Bft) NO 45 0,000 mm 0,0 UV-I 0 W/m -0,0 C 4,6 C 4,8 km/h (1 Bft) 91,30 %
19.02.2019 00:49 4,6 C 0,6 C 72 % 1020,8 hPa 0,0 l/m 4,8 km/h (1 Bft) NO 45 0,000 mm 0,0 UV-I 0 W/m -0,0 C 4,6 C 4,8 km/h (1 Bft) 95,65 %
19.02.2019 00:48 4,6 C 0,6 C 72 % 1020,8 hPa 0,0 l/m 4,8 km/h (1 Bft) O-NO 67 0,000 mm 0,0 UV-I 0 W/m -0,0 C 4,6 C 6,4 km/h (2 Bft) 95,65 %
19.02.2019 00:47 4,6 C 0,6 C 72 % 1020,8 hPa 0,0 l/m 4,8 km/h (1 Bft) O-NO 67 0,000 mm 0,0 UV-I 0 W/m -0,0 C 4,6 C 6,4 km/h (2 Bft) 100,00 %
19.02.2019 00:46 4,5 C 0,6 C 72 % 1020,8 hPa 0,0 l/m 4,8 km/h (1 Bft) O-NO 67 0,000 mm 0,0 UV-I 0 W/m -0,1 C 4,5 C 4,8 km/h (1 Bft) 95,65 %
19.02.2019 00:45 4,5 C 0,6 C 72 % 1020,8 hPa 0,0 l/m 3,2 km/h (1 Bft) O-NO 67 0,000 mm 0,0 UV-I 0 W/m -0,1 C 4,5 C 4,8 km/h (1 Bft) 95,65 %
19.02.2019 00:44 4,5 C 0,6 C 72 % 1020,8 hPa 0,0 l/m 3,2 km/h (1 Bft) O-NO 67 0,000 mm 0,0 UV-I 0 W/m -0,1 C 4,5 C 4,8 km/h (1 Bft) 91,30 %
19.02.2019 00:43 4,5 C 0,6 C 73 % 1020,8 hPa 0,0 l/m 3,2 km/h (1 Bft) O-NO 67 0,000 mm 0,0 UV-I 0 W/m 0,1 C 4,5 C 4,8 km/h (1 Bft) 100,00 %
19.02.2019 00:42 4,5 C 0,6 C 73 % 1020,8 hPa 0,0 l/m 3,2 km/h (1 Bft) O-NO 67 0,000 mm 0,0 UV-I 0 W/m 0,1 C 4,5 C 4,8 km/h (1 Bft) 100,00 %
19.02.2019 00:41 4,5 C 0,6 C 73 % 1020,8 hPa 0,0 l/m 3,2 km/h (1 Bft) O-NO 67 0,000 mm 0,0 UV-I 0 W/m 0,1 C 4,5 C 4,8 km/h (1 Bft) 100,00 %
19.02.2019 00:40 4,5 C 0,6 C 73 % 1020,8 hPa 0,0 l/m 3,2 km/h (1 Bft) O-NO 67 0,000 mm 0,0 UV-I 0 W/m 0,1 C 4,5 C 4,8 km/h (1 Bft) 100,00 %
19.02.2019 00:39 4,5 C 0,6 C 73 % 1020,8 hPa 0,0 l/m 3,2 km/h (1 Bft) O-NO 67 0,000 mm 0,0 UV-I 0 W/m 0,1 C 4,5 C 3,2 km/h (1 Bft) 100,00 %
19.02.2019 00:38 4,5 C 0,6 C 73 % 1020,8 hPa 0,0 l/m 3,2 km/h (1 Bft) O-NO 67 0,000 mm 0,0 UV-I 0 W/m 0,1 C 4,5 C 4,8 km/h (1 Bft) 95,65 %
19.02.2019 00:37 4,4 C 0,6 C 73 % 1020,8 hPa 0,0 l/m 3,2 km/h (1 Bft) O-NO 67 0,000 mm 0,0 UV-I 0 W/m -0,0 C 4,4 C 4,8 km/h (1 Bft) 100,00 %
19.02.2019 00:36 4,4 C 0,6 C 73 % 1020,8 hPa 0,0 l/m 3,2 km/h (1 Bft) O-NO 67 0,000 mm 0,0 UV-I 0 W/m -0,0 C 4,4 C 4,8 km/h (1 Bft) 100,00 %
19.02.2019 00:35 4,4 C 1,1 C 73 % 1020,8 hPa 0,0 l/m 4,8 km/h (1 Bft) O-NO 67 0,000 mm 0,0 UV-I 0 W/m -0,0 C 4,4 C 4,8 km/h (1 Bft) 100,00 %
19.02.2019 00:34 4,4 C 1,1 C 73 % 1020,9 hPa 0,0 l/m 3,2 km/h (1 Bft) O-NO 67 0,000 mm 0,0 UV-I 0 W/m -0,0 C 4,4 C 4,8 km/h (1 Bft) 95,65 %
19.02.2019 00:33 4,3 C 1,1 C 74 % 1020,8 hPa 0,0 l/m 3,2 km/h (1 Bft) O-NO 67 0,000 mm 0,0 UV-I 0 W/m 0,1 C 4,3 C 4,8 km/h (1 Bft) 100,00 %
19.02.2019 00:32 4,3 C 1,1 C 74 % 1020,8 hPa 0,0 l/m 3,2 km/h (1 Bft) O-NO 67 0,000 mm 0,0 UV-I 0 W/m 0,1 C 4,3 C 4,8 km/h (1 Bft) 100,00 %
19.02.2019 00:31 4,2 C 1,1 C 74 % 1020,8 hPa 0,0 l/m 3,2 km/h (1 Bft) O-NO 67 0,000 mm 0,0 UV-I 0 W/m -0,0 C 4,2 C 4,8 km/h (1 Bft) 91,30 %
19.02.2019 00:30 4,2 C 1,1 C 74 % 1020,8 hPa 0,0 l/m 4,8 km/h (1 Bft) O-NO 67 0,000 mm 0,0 UV-I 0 W/m -0,0 C 4,2 C 4,8 km/h (1 Bft) 100,00 %
19.02.2019 00:29 4,2 C 1,1 C 74 % 1020,8 hPa 0,0 l/m 4,8 km/h (1 Bft) O-NO 67 0,000 mm 0,0 UV-I 0 W/m -0,0 C 4,2 C 4,8 km/h (1 Bft) 100,00 %
19.02.2019 00:28 4,2 C 1,1 C 74 % 1020,9 hPa 0,0 l/m 4,8 km/h (1 Bft) O-NO 67 0,000 mm 0,0 UV-I 0 W/m -0,0 C 4,2 C 4,8 km/h (1 Bft) 100,00 %
19.02.2019 00:27 4,2 C 1,1 C 74 % 1020,8 hPa 0,0 l/m 4,8 km/h (1 Bft) O-NO 67 0,000 mm 0,0 UV-I 0 W/m -0,0 C 4,2 C 6,4 km/h (2 Bft) 100,00 %
19.02.2019 00:26 4,2 C 0,6 C 74 % 1020,8 hPa 0,0 l/m 4,8 km/h (1 Bft) O-NO 67 0,000 mm 0,0 UV-I 0 W/m -0,0 C 4,2 C 6,4 km/h (2 Bft) 95,65 %
19.02.2019 00:25 4,2 C 0,6 C 74 % 1020,8 hPa 0,0 l/m 4,8 km/h (1 Bft) O-NO 67 0,000 mm 0,0 UV-I 0 W/m -0,0 C 4,2 C 6,4 km/h (2 Bft) 100,00 %
19.02.2019 00:24 4,1 C 0,6 C 74 % 1020,8 hPa 0,0 l/m 4,8 km/h (1 Bft) O-NO 67 0,000 mm 0,0 UV-I 0 W/m -0,1 C 4,1 C 6,4 km/h (2 Bft) 91,30 %
19.02.2019 00:23 4,1 C 0,6 C 74 % 1020,8 hPa 0,0 l/m 4,8 km/h (1 Bft) O-NO 67 0,000 mm 0,0 UV-I 0 W/m -0,1 C 4,1 C 4,8 km/h (1 Bft) 100,00 %
19.02.2019 00:22 4,1 C 0,6 C 74 % 1020,8 hPa 0,0 l/m 4,8 km/h (1 Bft) O-NO 67 0,000 mm 0,0 UV-I 0 W/m -0,1 C 4,1 C 4,8 km/h (1 Bft) 95,65 %
19.02.2019 00:21 4,1 C 1,1 C 75 % 1020,8 hPa 0,0 l/m 4,8 km/h (1 Bft) O 90 0,000 mm 0,0 UV-I 0 W/m 0,1 C 4,1 C 4,8 km/h (1 Bft) 95,65 %
19.02.2019 00:20 4,1 C 0,6 C 75 % 1020,8 hPa 0,0 l/m 4,8 km/h (1 Bft) O 90 0,000 mm 0,0 UV-I 0 W/m 0,1 C 4,1 C 4,8 km/h (1 Bft) 95,65 %
19.02.2019 00:19 4,1 C 0,6 C 75 % 1020,8 hPa 0,0 l/m 4,8 km/h (1 Bft) O 90 0,000 mm 0,0 UV-I 0 W/m 0,1 C 4,1 C 4,8 km/h (1 Bft) 95,65 %
19.02.2019 00:18 4,1 C 0,6 C 75 % 1020,8 hPa 0,0 l/m 4,8 km/h (1 Bft) O 90 0,000 mm 0,0 UV-I 0 W/m 0,1 C 4,1 C 4,8 km/h (1 Bft) 100,00 %
19.02.2019 00:17 4,1 C 0,6 C 75 % 1020,8 hPa 0,0 l/m 3,2 km/h (1 Bft) O 90 0,000 mm 0,0 UV-I 0 W/m 0,1 C 4,1 C 4,8 km/h (1 Bft) 91,30 %
19.02.2019 00:16 4,1 C 0,6 C 75 % 1020,8 hPa 0,0 l/m 3,2 km/h (1 Bft) O 90 0,000 mm 0,0 UV-I 0 W/m 0,1 C 4,1 C 4,8 km/h (1 Bft) 95,65 %
19.02.2019 00:15 4,1 C 0,0 C 75 % 1020,8 hPa 0,0 l/m 4,8 km/h (1 Bft) O 90 0,000 mm 0,0 UV-I 0 W/m 0,1 C 4,1 C 4,8 km/h (1 Bft) 95,65 %
19.02.2019 00:14 4,1 C 0,0 C 75 % 1020,8 hPa 0,0 l/m 3,2 km/h (1 Bft) O 90 0,000 mm 0,0 UV-I 0 W/m 0,1 C 4,1 C 4,8 km/h (1 Bft) 100,00 %
19.02.2019 00:13 4,1 C 0,0 C 75 % 1020,8 hPa 0,0 l/m 3,2 km/h (1 Bft) O 90 0,000 mm 0,0 UV-I 0 W/m 0,1 C 4,1 C 4,8 km/h (1 Bft) 95,65 %
19.02.2019 00:12 4,0 C 0,0 C 75 % 1020,8 hPa 0,0 l/m 0,0 km/h (0 Bft) N 0 0,000 mm 0,0 UV-I 0 W/m -0,0 C 4,0 C 0,0 km/h (0 Bft) 100,00 %
19.02.2019 00:11 4,0 C 0,0 C 75 % 1020,8 hPa 0,0 l/m 0,0 km/h (0 Bft) N 0 0,000 mm 0,0 UV-I 0 W/m -0,0 C 4,0 C 0,0 km/h (0 Bft) 95,65 %
19.02.2019 00:10 4,0 C 0,0 C 75 % 1020,7 hPa 0,0 l/m 0,0 km/h (0 Bft) N 0 0,000 mm 0,0 UV-I 0 W/m -0,0 C 4,0 C 0,0 km/h (0 Bft) 86,96 %
19.02.2019 00:09 4,0 C 0,0 C 74 % 1020,8 hPa 0,0 l/m 0,0 km/h (0 Bft) N 0 0,000 mm 0,0 UV-I 0 W/m -0,2 C 4,0 C 0,0 km/h (0 Bft) 100,00 %
19.02.2019 00:08 4,0 C 0,6 C 74 % 1020,8 hPa 0,0 l/m 0,0 km/h (0 Bft) N 0 0,000 mm 0,0 UV-I 0 W/m -0,2 C 4,0 C 0,0 km/h (0 Bft) 100,00 %
19.02.2019 00:07 4,0 C 0,6 C 74 % 1020,7 hPa 0,0 l/m 0,0 km/h (0 Bft) N 0 0,000 mm 0,0 UV-I 0 W/m -0,2 C 4,0 C 0,0 km/h (0 Bft) 100,00 %
19.02.2019 00:06 4,0 C 0,0 C 74 % 1020,7 hPa 0,0 l/m 0,0 km/h (0 Bft) N 0 0,000 mm 0,0 UV-I 0 W/m -0,2 C 4,0 C 0,0 km/h (0 Bft) 100,00 %
19.02.2019 00:05 4,0 C 0,0 C 74 % 1020,7 hPa 0,0 l/m 0,0 km/h (0 Bft) N 0 0,000 mm 0,0 UV-I 0 W/m -0,2 C 4,0 C 0,0 km/h (0 Bft) 100,00 %
19.02.2019 00:04 4,0 C 0,6 C 74 % 1020,7 hPa 0,0 l/m 0,0 km/h (0 Bft) N 0 0,000 mm 0,0 UV-I 0 W/m -0,2 C 4,0 C 0,0 km/h (0 Bft) 100,00 %
19.02.2019 00:03 4,0 C 0,6 C 74 % 1020,7 hPa 0,0 l/m 0,0 km/h (0 Bft) N 0 0,000 mm 0,0 UV-I 0 W/m -0,2 C 4,0 C 0,0 km/h (0 Bft) 95,65 %
19.02.2019 00:02 4,1 C 0,6 C 74 % 1020,7 hPa 0,0 l/m 0,0 km/h (0 Bft) N 0 0,000 mm 0,0 UV-I 0 W/m -0,1 C 4,1 C 0,0 km/h (0 Bft) 95,65 %
19.02.2019 00:01 4,1 C 0,6 C 74 % 1020,7 hPa 0,0 l/m 0,0 km/h (0 Bft) N 0 0,000 mm 0,0 UV-I 0 W/m -0,1 C 4,1 C 0,0 km/h (0 Bft) 95,65 %
19.02.2019 00:00 4,1 C 0,6 C 74 % 1020,7 hPa 0,0 l/m 0,0 km/h (0 Bft) N 0 0,025 mm 0,0 UV-I 0 W/m -0,1 C 4,1 C 0,0 km/h (0 Bft) 100,00 %
_ Min-Zeit 01:59 01:59 03:43 00:00 - 00:00 - - - - - 03:35 03:26 00:00 02:45
Minimum _ 3,2 C -1,1 C 62 % 1020,7 hPa - 0,0 km/h (0 Bft) - - - - - -3,1 C -0,7 C 0,0 km/h (0 Bft) 82,61 %
_ Max-Zeit 00:47 00:21 01:59 00:28 00:00 03:26 - - 00:00 00:00 00:00 00:38 00:47 03:37 00:00
Maximum _ 4,6 C 1,1 C 77 % 1020,9 hPa 0,0 l/m 11,3 km/h
W (2 Bft)
- - 0,025 mm 0,0 UV-I 0 W/m 0,1 C 4,6 C 14,5 km/h
W (3 Bft)
100,00 %
Durchschnitt _ 3,8 C -0,2 C 72 % 1020,8 hPa #0,0 l/m 5,1 km/h (1 Bft) W-NW - #0,100 mm 0,0 UV-I 0 W/m -0,9 C 3,4 C 6,9 km/h (2 Bft) 96,60 %